Time,TemperatureF,DewpointF,PressureIn,WindDirection,WindDirectionDegrees,WindSpeedMPH,WindSpeedGustMPH,Humidity,HourlyPrecipIn,Conditions,Clouds,dailyrainin,SoftwareType,DateUTC
2013-04-09 00:04:00,70.1,61.8,29.64,SSE,165,4.0,13.0,75,0.00,,,0.00,WeatherCatV1.02B3,2013-04-09 05:04:00,
2013-04-09 00:09:00,70.0,62.1,29.64,SSE,168,3.0,5.0,76,0.00,,,0.00,WeatherCatV1.02B3,2013-04-09 05:09:00,
2013-04-09 00:14:00,69.9,62.0,29.65,SSW,192,5.0,10.0,76,0.00,,,0.00,WeatherCatV1.02B3,2013-04-09 05:14:00,
2013-04-09 00:19:00,69.9,62.0,29.65,SSW,196,7.0,11.0,76,0.00,,,0.00,WeatherCatV1.02B3,2013-04-09 05:19:00,
2013-04-09 00:24:00,69.8,62.3,29.65,South,175,4.0,15.0,77,0.00,,,0.00,WeatherCatV1.02B3,2013-04-09 05:24:00,
2013-04-09 00:29:00,69.7,62.2,29.64,SW,235,5.0,7.0,77,0.00,,,0.00,WeatherCatV1.02B3,2013-04-09 05:29:00,
2013-04-09 00:34:00,69.7,62.5,29.64,SSE,165,9.0,10.0,78,0.00,,,0.00,WeatherCatV1.02B3,2013-04-09 05:34:00,
2013-04-09 00:39:00,69.6,62.4,29.64,South,176,11.0,11.0,78,0.00,,,0.00,WeatherCatV1.02B3,2013-04-09 05:39:00,
2013-04-09 00:44:00,69.5,62.3,29.64,SSE,163,5.0,12.0,78,0.00,,,0.00,WeatherCatV1.02B3,2013-04-09 05:44:00,
2013-04-09 00:49:00,69.4,62.6,29.64,South,185,6.0,10.0,79,0.00,,,0.00,WeatherCatV1.02B3,2013-04-09 05:49:00,
2013-04-09 00:54:00,69.3,62.5,29.64,SSE,148,7.0,12.0,79,0.00,,,0.00,WeatherCatV1.02B3,2013-04-09 05:54:00,
2013-04-09 00:59:00,69.2,62.4,29.64,South,169,5.0,14.0,79,0.00,,,0.00,WeatherCatV1.02B3,2013-04-09 05:59:00,
2013-04-09 01:04:00,69.1,62.7,29.64,SSW,194,9.0,14.0,80,0.00,,,0.00,WeatherCatV1.02B3,2013-04-09 06:04:00,
2013-04-09 01:09:00,69.0,62.6,29.64,SSE,150,0.0,9.0,80,0.00,,,0.00,WeatherCatV1.02B3,2013-04-09 06:09:00,
2013-04-09 01:14:00,69.0,62.9,29.64,South,178,4.0,12.0,81,0.00,,,0.00,WeatherCatV1.02B3,2013-04-09 06:14:00,
2013-04-09 01:19:00,68.9,62.8,29.64,SSE,150,6.0,13.0,81,0.00,,,0.00,WeatherCatV1.02B3,2013-04-09 06:19:00,
2013-04-09 01:24:00,68.8,62.7,29.64,SSE,147,4.0,13.0,81,0.00,,,0.00,WeatherCatV1.02B3,2013-04-09 06:24:00,
2013-04-09 01:29:00,68.7,63.0,29.64,SSE,166,4.0,14.0,82,0.00,,,0.00,WeatherCatV1.02B3,2013-04-09 06:29:00,
2013-04-09 01:34:00,68.7,63.0,29.64,SSE,161,2.0,11.0,82,0.00,,,0.00,WeatherCatV1.02B3,2013-04-09 06:34:00,
2013-04-09 01:39:00,68.6,62.9,29.64,SSE,166,3.0,11.0,82,0.00,,,0.00,WeatherCatV1.02B3,2013-04-09 06:39:00,
2013-04-09 01:44:00,68.6,63.2,29.63,SSE,161,11.0,11.0,83,0.00,,,0.00,WeatherCatV1.02B3,2013-04-09 06:44:00,
2013-04-09 01:49:00,68.5,63.1,29.63,South,179,6.0,11.0,83,0.00,,,0.00,WeatherCatV1.02B3,2013-04-09 06:49:00,
2013-04-09 01:54:00,68.5,63.1,29.63,South,178,1.0,6.0,83,0.00,,,0.00,WeatherCatV1.02B3,2013-04-09 06:54:00,
2013-04-09 01:59:00,68.3,63.3,29.63,South,169,6.0,14.0,84,0.00,,,0.00,WeatherCatV1.02B3,2013-04-09 06:59:00,
2013-04-09 02:04:00,68.2,63.2,29.63,SSE,159,3.0,13.0,84,0.00,,,0.00,WeatherCatV1.02B3,2013-04-09 07:04:00,
2013-04-09 02:09:00,68.1,63.4,29.63,SSE,155,7.0,11.0,85,0.00,,,0.00,WeatherCatV1.02B3,2013-04-09 07:09:00,
2013-04-09 02:14:00,68.0,63.3,29.62,SE,136,0.0,11.0,85,0.00,,,0.00,WeatherCatV1.02B3,2013-04-09 07:14:00,
2013-04-09 02:19:00,68.0,63.3,29.62,SSE,166,0.0,10.0,85,0.00,,,0.00,WeatherCatV1.02B3,2013-04-09 07:19:00,
2013-04-09 02:24:00,68.0,63.3,29.62,SSE,148,0.0,9.0,85,0.00,,,0.00,WeatherCatV1.02B3,2013-04-09 07:24:00,
2013-04-09 02:29:00,68.0,63.3,29.62,South,181,5.0,13.0,85,0.00,,,0.00,WeatherCatV1.02B3,2013-04-09 07:29:00,
2013-04-09 02:34:00,68.1,63.4,29.62,ESE,116,5.0,12.0,85,0.00,,,0.00,WeatherCatV1.02B3,2013-04-09 07:34:00,
2013-04-09 02:39:00,68.1,63.4,29.62,South,185,11.0,11.0,85,0.00,,,0.00,WeatherCatV1.02B3,2013-04-09 07:39:00,
2013-04-09 02:44:00,68.2,63.5,29.61,SSW,194,3.0,9.0,85,0.00,,,0.00,WeatherCatV1.02B3,2013-04-09 07:44:00,
2013-04-09 02:49:00,68.2,63.5,29.61,South,175,0.0,10.0,85,0.00,,,0.00,WeatherCatV1.02B3,2013-04-09 07:49:00,
2013-04-09 02:54:00,68.1,63.4,29.61,SSE,161,3.0,10.0,85,0.00,,,0.00,WeatherCatV1.02B3,2013-04-09 07:54:00,
2013-04-09 02:59:00,68.1,63.7,29.61,SSE,161,6.0,10.0,86,0.00,,,0.00,WeatherCatV1.02B3,2013-04-09 07:59:00,
2013-04-09 03:04:00,68.0,64.0,29.61,South,171,3.0,11.0,87,0.00,,,0.00,WeatherCatV1.02B3,2013-04-09 08:04:00,
2013-04-09 03:09:00,67.8,63.8,29.61,SSE,157,0.0,12.0,87,0.00,,,0.00,WeatherCatV1.02B3,2013-04-09 08:09:00,
2013-04-09 03:14:00,67.7,64.0,29.61,SE,136,3.0,11.0,88,0.00,,,0.00,WeatherCatV1.02B3,2013-04-09 08:14:00,
2013-04-09 03:19:00,67.7,64.0,29.61,SSE,163,3.0,11.0,88,0.00,,,0.00,WeatherCatV1.02B3,2013-04-09 08:19:00,
2013-04-09 03:24:00,67.7,64.0,29.61,South,171,4.0,7.0,88,0.00,,,0.00,WeatherCatV1.02B3,2013-04-09 08:24:00,
2013-04-09 03:29:00,67.7,64.0,29.59,SSE,162,0.0,10.0,88,0.00,,,0.00,WeatherCatV1.02B3,2013-04-09 08:29:00,
2013-04-09 03:34:00,67.7,64.0,29.59,SSE,161,6.0,13.0,88,0.00,,,0.00,WeatherCatV1.02B3,2013-04-09 08:34:00,
2013-04-09 03:39:00,67.6,63.9,29.59,South,173,10.0,14.0,88,0.00,,,0.00,WeatherCatV1.02B3,2013-04-09 08:39:00,
2013-04-09 03:44:00,67.7,64.0,29.59,SE,144,4.0,10.0,88,0.00,,,0.00,WeatherCatV1.02B3,2013-04-09 08:44:00,
2013-04-09 03:49:00,67.7,64.0,29.59,SE,141,0.0,10.0,88,0.00,,,0.00,WeatherCatV1.02B3,2013-04-09 08:49:00,
2013-04-09 03:54:00,67.8,64.1,29.59,South,184,0.0,9.0,88,0.00,,,0.00,WeatherCatV1.02B3,2013-04-09 08:54:00,
2013-04-09 03:59:00,67.8,64.1,29.59,SSE,164,5.0,10.0,88,0.00,,,0.00,WeatherCatV1.02B3,2013-04-09 08:59:00,
2013-04-09 04:04:00,67.9,64.2,29.59,South,171,4.0,11.0,88,0.00,,,0.00,WeatherCatV1.02B3,2013-04-09 09:04:00,
2013-04-09 04:09:00,67.9,64.2,29.59,SSE,163,9.0,12.0,88,0.00,,,0.00,WeatherCatV1.02B3,2013-04-09 09:09:00,
2013-04-09 04:14:00,67.9,64.2,29.59,SSE,164,11.0,11.0,88,0.00,,,0.00,WeatherCatV1.02B3,2013-04-09 09:14:00,
2013-04-09 04:19:00,67.9,64.2,29.59,SSE,157,7.0,7.0,88,0.00,,,0.00,WeatherCatV1.02B3,2013-04-09 09:19:00,
2013-04-09 04:24:00,68.0,64.6,29.59,SSE,159,0.0,7.0,89,0.00,,,0.00,WeatherCatV1.02B3,2013-04-09 09:24:00,
2013-04-09 04:29:00,68.0,64.3,29.59,SSE,149,7.0,13.0,88,0.00,,,0.00,WeatherCatV1.02B3,2013-04-09 09:29:00,
2013-04-09 04:34:00,68.1,64.4,29.59,SE,140,4.0,12.0,88,0.00,,,0.00,WeatherCatV1.02B3,2013-04-09 09:34:00,
2013-04-09 04:39:00,68.1,64.4,29.59,South,183,4.0,9.0,88,0.00,,,0.00,WeatherCatV1.02B3,2013-04-09 09:39:00,
2013-04-09 04:44:00,68.2,64.5,29.59,South,171,0.0,12.0,88,0.00,,,0.00,WeatherCatV1.02B3,2013-04-09 09:44:00,
2013-04-09 04:49:00,68.2,64.5,29.59,SSE,153,6.0,6.0,88,0.00,,,0.00,WeatherCatV1.02B3,2013-04-09 09:49:00,
2013-04-09 04:54:00,68.3,64.6,29.59,SSE,166,0.0,13.0,88,0.00,,,0.00,WeatherCatV1.02B3,2013-04-09 09:54:00,
2013-04-09 04:59:00,68.3,64.6,29.59,SSE,167,0.0,12.0,88,0.00,,,0.00,WeatherCatV1.02B3,2013-04-09 09:59:00,
2013-04-09 05:04:00,68.3,64.6,29.59,South,175,9.0,13.0,88,0.00,,,0.00,WeatherCatV1.02B3,2013-04-09 10:04:00,
2013-04-09 05:09:00,68.4,64.7,29.59,SSE,159,4.0,7.0,88,0.00,,,0.00,WeatherCatV1.02B3,2013-04-09 10:09:00,
2013-04-09 05:14:00,68.4,64.7,29.59,SSE,157,0.0,14.0,88,0.00,,,0.00,WeatherCatV1.02B3,2013-04-09 10:14:00,
2013-04-09 05:19:00,68.4,64.7,29.59,South,171,2.0,11.0,88,0.00,,,0.00,WeatherCatV1.02B3,2013-04-09 10:19:00,
2013-04-09 05:24:00,68.3,64.6,29.59,South,180,0.0,11.0,88,0.00,,,0.00,WeatherCatV1.02B3,2013-04-09 10:24:00,
2013-04-09 05:29:00,68.3,64.6,29.59,SSE,155,0.0,7.0,88,0.00,,,0.00,WeatherCatV1.02B3,2013-04-09 10:29:00,
2013-04-09 05:34:00,68.2,64.5,29.59,SSW,196,7.0,11.0,88,0.00,,,0.00,WeatherCatV1.02B3,2013-04-09 10:34:00,
2013-04-09 05:39:00,68.3,64.9,29.59,South,171,4.0,10.0,89,0.00,,,0.00,WeatherCatV1.02B3,2013-04-09 10:39:00,
2013-04-09 05:44:00,68.2,64.8,29.59,SE,135,7.0,16.0,89,0.00,,,0.00,WeatherCatV1.02B3,2013-04-09 10:44:00,
2013-04-09 05:49:00,68.3,64.9,29.59,South,173,0.0,11.0,89,0.00,,,0.00,WeatherCatV1.02B3,2013-04-09 10:49:00,
2013-04-09 05:54:00,68.3,64.9,29.59,South,180,6.0,8.0,89,0.00,,,0.00,WeatherCatV1.02B3,2013-04-09 10:54:00,
2013-04-09 05:59:00,68.3,64.9,29.59,SE,142,6.0,8.0,89,0.00,,,0.00,WeatherCatV1.02B3,2013-04-09 10:59:00,
2013-04-09 06:04:00,68.2,64.8,29.59,SSE,163,0.0,8.0,89,0.00,,,0.00,WeatherCatV1.02B3,2013-04-09 11:04:00,
2013-04-09 06:09:00,68.2,64.8,29.59,SSE,165,1.0,11.0,89,0.00,,,0.00,WeatherCatV1.02B3,2013-04-09 11:09:00,
2013-04-09 06:14:00,68.0,64.6,29.60,SSE,163,3.0,11.0,89,0.00,,,0.00,WeatherCatV1.02B3,2013-04-09 11:14:00,
2013-04-09 06:19:00,68.0,64.6,29.60,SSE,157,0.0,7.0,89,0.00,,,0.00,WeatherCatV1.02B3,2013-04-09 11:19:00,
2013-04-09 06:24:00,67.9,64.5,29.60,South,186,0.0,6.0,89,0.00,,,0.00,WeatherCatV1.02B3,2013-04-09 11:24:00,
2013-04-09 06:29:00,67.9,64.9,29.61,South,189,4.0,11.0,90,0.00,,,0.00,WeatherCatV1.02B3,2013-04-09 11:29:00,
2013-04-09 06:34:00,67.9,64.9,29.61,South,178,5.0,7.0,90,0.00,,,0.00,WeatherCatV1.02B3,2013-04-09 11:34:00,
2013-04-09 06:39:00,68.0,65.0,29.61,South,173,0.0,9.0,90,0.00,,,0.00,WeatherCatV1.02B3,2013-04-09 11:39:00,
2013-04-09 06:44:00,68.0,65.0,29.61,SSE,159,10.0,12.0,90,0.00,,,0.00,WeatherCatV1.02B3,2013-04-09 11:44:00,
2013-04-09 06:49:00,68.1,64.7,29.61,SE,146,5.0,11.0,89,0.00,,,0.00,WeatherCatV1.02B3,2013-04-09 11:49:00,
2013-04-09 06:54:00,68.1,65.0,29.61,SSE,154,6.0,10.0,90,0.00,,,0.00,WeatherCatV1.02B3,2013-04-09 11:54:00,
2013-04-09 06:59:00,68.1,65.0,29.61,SSE,159,0.0,5.0,90,0.00,,,0.00,WeatherCatV1.02B3,2013-04-09 11:59:00,
2013-04-09 07:04:00,68.1,65.0,29.61,South,186,7.0,13.0,90,0.00,,,0.00,WeatherCatV1.02B3,2013-04-09 12:04:00,
2013-04-09 07:09:00,68.1,65.0,29.61,SSE,154,4.0,10.0,90,0.00,,,0.00,WeatherCatV1.02B3,2013-04-09 12:09:00,
2013-04-09 07:14:00,68.1,65.0,29.61,ESE,121,0.0,8.0,90,0.00,,,0.00,WeatherCatV1.02B3,2013-04-09 12:14:00,
2013-04-09 07:19:00,68.0,65.0,29.61,South,172,0.0,6.0,90,0.00,,,0.00,WeatherCatV1.02B3,2013-04-09 12:19:00,
2013-04-09 07:24:00,68.0,65.0,29.61,SSE,162,0.0,6.0,90,0.00,,,0.00,WeatherCatV1.02B3,2013-04-09 12:24:00,
2013-04-09 07:29:00,68.0,65.0,29.62,South,183,6.0,10.0,90,0.00,,,0.00,WeatherCatV1.02B3,2013-04-09 12:29:00,
2013-04-09 07:34:00,68.0,65.0,29.62,SSE,165,3.0,10.0,90,0.00,,,0.00,WeatherCatV1.02B3,2013-04-09 12:34:00,
2013-04-09 07:39:00,68.0,65.0,29.62,SSE,148,0.0,11.0,90,0.00,,,0.00,WeatherCatV1.02B3,2013-04-09 12:39:00,
2013-04-09 07:44:00,68.0,65.0,29.62,SSW,196,1.0,8.0,90,0.00,,,0.00,WeatherCatV1.02B3,2013-04-09 12:44:00,
2013-04-09 07:49:00,68.0,65.0,29.62,SE,140,3.0,13.0,90,0.00,,,0.00,WeatherCatV1.02B3,2013-04-09 12:49:00,
2013-04-09 07:54:00,68.0,65.0,29.62,SSE,165,0.0,10.0,90,0.00,,,0.00,WeatherCatV1.02B3,2013-04-09 12:54:00,
2013-04-09 07:59:00,68.1,65.0,29.62,South,178,4.0,12.0,90,0.00,,,0.00,WeatherCatV1.02B3,2013-04-09 12:59:00,
2013-04-09 08:04:00,68.2,65.1,29.62,SSE,163,5.0,10.0,90,0.00,,,0.00,WeatherCatV1.02B3,2013-04-09 13:04:00,
2013-04-09 08:09:00,68.4,65.0,29.62,SE,144,0.0,6.0,89,0.00,,,0.00,WeatherCatV1.02B3,2013-04-09 13:09:00,
2013-04-09 08:14:00,68.6,65.2,29.62,SSE,158,3.0,9.0,89,0.00,,,0.00,WeatherCatV1.02B3,2013-04-09 13:14:00,
2013-04-09 08:19:00,68.8,65.1,29.62,SSW,192,0.0,7.0,88,0.00,,,0.00,WeatherCatV1.02B3,2013-04-09 13:19:00,
2013-04-09 08:24:00,69.0,65.3,29.62,South,175,8.0,12.0,88,0.00,,,0.00,WeatherCatV1.02B3,2013-04-09 13:24:00,
2013-04-09 08:29:00,69.3,65.3,29.63,South,182,4.0,11.0,87,0.00,,,0.00,WeatherCatV1.02B3,2013-04-09 13:29:00,
2013-04-09 08:34:00,69.5,65.1,29.63,South,173,3.0,13.0,86,0.00,,,0.00,WeatherCatV1.02B3,2013-04-09 13:34:00,
2013-04-09 08:39:00,69.7,65.3,29.63,SSE,153,0.0,12.0,86,0.00,,,0.00,WeatherCatV1.02B3,2013-04-09 13:39:00,
2013-04-09 08:44:00,69.9,65.2,29.63,SSE,168,7.0,12.0,85,0.00,,,0.00,WeatherCatV1.02B3,2013-04-09 13:44:00,
2013-04-09 08:49:00,70.1,65.0,29.63,South,171,10.0,15.0,84,0.00,,,0.00,WeatherCatV1.02B3,2013-04-09 13:49:00,
2013-04-09 08:54:00,70.3,64.9,29.63,SSE,167,4.0,12.0,83,0.00,,,0.00,WeatherCatV1.02B3,2013-04-09 13:54:00,
2013-04-09 08:59:00,70.4,65.0,29.62,South,182,3.0,12.0,83,0.00,,,0.00,WeatherCatV1.02B3,2013-04-09 13:59:00,
2013-04-09 09:04:00,70.6,65.2,29.62,South,183,7.0,15.0,83,0.00,,,0.00,WeatherCatV1.02B3,2013-04-09 14:04:00,
2013-04-09 09:09:00,70.6,65.2,29.62,SSW,211,5.0,13.0,83,0.00,,,0.00,WeatherCatV1.02B3,2013-04-09 14:09:00,
2013-04-09 09:14:00,70.9,65.1,29.62,SSE,163,10.0,12.0,82,0.00,,,0.00,WeatherCatV1.02B3,2013-04-09 14:14:00,
2013-04-09 09:19:00,71.1,65.0,29.62,WSW,245,9.0,14.0,81,0.00,,,0.00,WeatherCatV1.02B3,2013-04-09 14:19:00,
2013-04-09 09:24:00,71.1,65.0,29.62,South,184,6.0,16.0,81,0.00,,,0.00,WeatherCatV1.02B3,2013-04-09 14:24:00,
2013-04-09 09:29:00,71.1,64.6,29.62,SSW,194,5.0,17.0,80,0.00,,,0.00,WeatherCatV1.02B3,2013-04-09 14:29:00,
2013-04-09 09:34:00,71.1,65.0,29.62,SSW,194,11.0,16.0,81,0.00,,,0.00,WeatherCatV1.02B3,2013-04-09 14:34:00,
2013-04-09 09:39:00,71.2,65.1,29.62,SSW,210,6.0,17.0,81,0.00,,,0.00,WeatherCatV1.02B3,2013-04-09 14:39:00,
2013-04-09 09:44:00,71.5,65.7,29.62,SSE,155,9.0,10.0,82,0.00,,,0.00,WeatherCatV1.02B3,2013-04-09 14:44:00,
2013-04-09 09:49:00,71.8,65.3,29.62,South,179,10.0,14.0,80,0.00,,,0.00,WeatherCatV1.02B3,2013-04-09 14:49:00,
2013-04-09 09:54:00,72.0,65.1,29.62,SE,136,3.0,13.0,79,0.00,,,0.00,WeatherCatV1.02B3,2013-04-09 14:54:00,
2013-04-09 09:59:00,72.2,65.3,29.61,SE,130,0.0,13.0,79,0.00,,,0.00,WeatherCatV1.02B3,2013-04-09 14:59:00,
2013-04-09 10:04:00,72.6,65.3,29.61,WSW,247,4.0,19.0,78,0.00,,,0.00,WeatherCatV1.02B3,2013-04-09 15:04:00,
2013-04-09 10:09:00,72.8,65.2,29.61,South,190,12.0,18.0,77,0.00,,,0.00,WeatherCatV1.02B3,2013-04-09 15:09:00,
2013-04-09 10:14:00,72.9,65.3,29.62,SE,142,3.0,20.0,77,0.00,,,0.00,WeatherCatV1.02B3,2013-04-09 15:14:00,
2013-04-09 10:19:00,73.4,65.7,29.62,SSW,202,16.0,16.0,77,0.00,,,0.00,WeatherCatV1.02B3,2013-04-09 15:19:00,
2013-04-09 10:24:00,73.7,65.3,29.62,SSW,197,7.0,14.0,75,0.00,,,0.00,WeatherCatV1.02B3,2013-04-09 15:24:00,
2013-04-09 10:29:00,74.4,65.9,29.61,SSW,205,5.0,15.0,75,0.00,,,0.00,WeatherCatV1.02B3,2013-04-09 15:29:00,
2013-04-09 10:34:00,74.8,65.5,29.61,South,190,4.0,12.0,73,0.00,,,0.00,WeatherCatV1.02B3,2013-04-09 15:34:00,
2013-04-09 10:39:00,74.9,65.6,29.61,SSW,200,4.0,11.0,73,0.00,,,0.00,WeatherCatV1.02B3,2013-04-09 15:39:00,
2013-04-09 10:44:00,75.0,65.7,29.61,South,183,7.0,15.0,73,0.00,,,0.00,WeatherCatV1.02B3,2013-04-09 15:44:00,
2013-04-09 10:49:00,75.8,66.1,29.61,SSE,150,16.0,16.0,72,0.00,,,0.00,WeatherCatV1.02B3,2013-04-09 15:49:00,
2013-04-09 10:54:00,76.5,66.4,29.61,South,189,6.0,16.0,71,0.00,,,0.00,WeatherCatV1.02B3,2013-04-09 15:54:00,
2013-04-09 10:59:00,76.9,66.3,29.60,SSW,206,3.0,9.0,70,0.00,,,0.00,WeatherCatV1.02B3,2013-04-09 15:59:00,
2013-04-09 11:04:00,77.6,66.6,29.60,SE,138,9.0,20.0,69,0.00,,,0.00,WeatherCatV1.02B3,2013-04-09 16:04:00,
2013-04-09 11:09:00,78.1,66.2,29.60,South,185,11.0,17.0,67,0.00,,,0.00,WeatherCatV1.02B3,2013-04-09 16:09:00,
2013-04-09 11:14:00,78.3,66.8,29.60,South,176,2.0,11.0,68,0.00,,,0.00,WeatherCatV1.02B3,2013-04-09 16:14:00,
2013-04-09 11:20:00,78.9,67.4,29.60,SE,141,0.0,13.0,68,0.00,,,0.00,WeatherCatV1.02B3,2013-04-09 16:20:00,
2013-04-09 11:25:00,79.3,65.6,29.60,South,174,15.0,25.0,63,0.00,,,0.00,WeatherCatV1.02B3,2013-04-09 16:25:00,
2013-04-09 11:30:00,79.3,66.0,29.60,SSE,154,7.0,16.0,64,0.00,,,0.00,WeatherCatV1.02B3,2013-04-09 16:30:00,
2013-04-09 11:35:00,79.2,65.9,29.60,SSW,194,2.0,16.0,64,0.00,,,0.00,WeatherCatV1.02B3,2013-04-09 16:35:00,
2013-04-09 11:40:00,79.3,65.6,29.60,SSE,167,9.0,14.0,63,0.00,,,0.00,WeatherCatV1.02B3,2013-04-09 16:40:00,
2013-04-09 11:45:00,79.4,66.1,29.60,SSW,193,15.0,18.0,64,0.00,,,0.00,WeatherCatV1.02B3,2013-04-09 16:45:00,
2013-04-09 11:50:00,79.5,66.7,29.60,SSW,201,9.0,13.0,65,0.00,,,0.00,WeatherCatV1.02B3,2013-04-09 16:50:00,
2013-04-09 11:55:00,79.8,66.1,29.60,SSE,160,9.0,19.0,63,0.00,,,0.00,WeatherCatV1.02B3,2013-04-09 16:55:00,
2013-04-09 12:00:00,80.4,67.1,29.60,SSW,193,6.0,11.0,64,0.00,,,0.00,WeatherCatV1.02B3,2013-04-09 17:00:00,
2013-04-09 12:23:00,81.2,66.0,29.60,SSW,197,2.0,20.0,60,0.00,,,0.00,WeatherCatV1.02B3,2013-04-09 17:23:00,
2013-04-09 12:28:00,81.5,66.2,29.60,SSW,205,12.0,16.0,60,0.00,,,0.00,WeatherCatV1.02B3,2013-04-09 17:28:00,
2013-04-09 12:33:00,81.6,65.9,29.60,SW,218,3.0,17.0,59,0.00,,,0.00,WeatherCatV1.02B3,2013-04-09 17:33:00,
2013-04-09 12:38:00,81.9,66.6,29.60,SSE,168,12.0,14.0,60,0.00,,,0.00,WeatherCatV1.02B3,2013-04-09 17:38:00,
2013-04-09 12:43:00,82.2,66.4,29.60,South,176,10.0,14.0,59,0.00,,,0.00,WeatherCatV1.02B3,2013-04-09 17:43:00,
2013-04-09 12:48:00,82.2,66.4,29.60,SW,234,3.0,16.0,59,0.00,,,0.00,WeatherCatV1.02B3,2013-04-09 17:48:00,
2013-04-09 12:54:00,82.1,65.8,29.60,SSW,206,5.0,13.0,58,0.00,,,0.00,WeatherCatV1.02B3,2013-04-09 17:54:00,
2013-04-09 12:58:00,82.3,67.0,29.60,SSE,147,10.0,12.0,60,0.00,,,0.00,WeatherCatV1.02B3,2013-04-09 17:58:00,
2013-04-09 13:04:00,82.5,66.7,29.60,South,186,10.0,12.0,59,0.00,,,0.00,WeatherCatV1.02B3,2013-04-09 18:04:00,
2013-04-09 13:09:00,82.8,66.5,29.60,South,186,6.0,20.0,58,0.00,,,0.00,WeatherCatV1.02B3,2013-04-09 18:09:00,
2013-04-09 13:14:00,83.0,66.7,29.59,ESE,123,1.0,16.0,58,0.00,,,0.00,WeatherCatV1.02B3,2013-04-09 18:14:00,
2013-04-09 13:19:00,83.5,66.6,29.59,SSE,168,11.0,15.0,57,0.00,,,0.00,WeatherCatV1.02B3,2013-04-09 18:19:00,
2013-04-09 13:24:00,83.4,66.5,29.59,SSE,162,10.0,20.0,57,0.00,,,0.00,WeatherCatV1.02B3,2013-04-09 18:24:00,
2013-04-09 13:29:00,83.5,66.1,29.60,SW,215,9.0,10.0,56,0.00,,,0.00,WeatherCatV1.02B3,2013-04-09 18:29:00,
2013-04-09 13:34:00,83.9,67.0,29.60,South,182,3.0,15.0,57,0.00,,,0.00,WeatherCatV1.02B3,2013-04-09 18:34:00,
2013-04-09 13:39:00,84.3,66.3,29.60,SSW,202,7.0,14.0,55,0.00,,,0.00,WeatherCatV1.02B3,2013-04-09 18:39:00,
2013-04-09 13:44:00,84.4,65.9,29.60,South,174,12.0,18.0,54,0.00,,,0.00,WeatherCatV1.02B3,2013-04-09 18:44:00,
2013-04-09 13:49:00,84.2,66.2,29.59,WSW,238,10.0,15.0,55,0.00,,,0.00,WeatherCatV1.02B3,2013-04-09 18:49:00,
2013-04-09 13:54:00,84.1,65.6,29.59,SSE,152,17.0,19.0,54,0.00,,,0.00,WeatherCatV1.02B3,2013-04-09 18:54:00,
2013-04-09 13:59:00,83.4,65.0,29.59,East,98,12.0,16.0,54,0.00,,,0.00,WeatherCatV1.02B3,2013-04-09 18:59:00,
2013-04-09 14:04:00,82.6,65.3,29.59,SSE,168,5.0,11.0,56,0.00,,,0.00,WeatherCatV1.02B3,2013-04-09 19:04:00,
2013-04-09 14:09:00,82.2,64.9,29.59,SE,141,10.0,16.0,56,0.00,,,0.00,WeatherCatV1.02B3,2013-04-09 19:09:00,
2013-04-09 14:14:00,81.9,65.6,29.59,SSW,195,12.0,12.0,58,0.00,,,0.00,WeatherCatV1.02B3,2013-04-09 19:14:00,
2013-04-09 14:19:00,81.8,65.6,29.59,South,181,7.0,17.0,58,0.00,,,0.00,WeatherCatV1.02B3,2013-04-09 19:19:00,
2013-04-09 14:24:00,81.7,65.5,29.59,SSW,209,4.0,10.0,58,0.00,,,0.00,WeatherCatV1.02B3,2013-04-09 19:24:00,
2013-04-09 14:29:00,81.6,65.4,29.59,SSE,157,10.0,14.0,58,0.00,,,0.00,WeatherCatV1.02B3,2013-04-09 19:29:00,
2013-04-09 14:34:00,81.3,65.1,29.59,SSE,168,13.0,14.0,58,0.00,,,0.00,WeatherCatV1.02B3,2013-04-09 19:34:00,
2013-04-09 14:39:00,81.3,66.1,29.59,SSE,154,9.0,9.0,60,0.00,,,0.00,WeatherCatV1.02B3,2013-04-09 19:39:00,
2013-04-09 14:44:00,81.2,65.5,29.59,SSW,194,4.0,12.0,59,0.00,,,0.00,WeatherCatV1.02B3,2013-04-09 19:44:00,
2013-04-09 14:49:00,81.1,65.4,29.59,South,182,2.0,6.0,59,0.00,,,0.00,WeatherCatV1.02B3,2013-04-09 19:49:00,
2013-04-09 14:54:00,81.0,65.3,29.59,SW,226,8.0,13.0,59,0.00,,,0.00,WeatherCatV1.02B3,2013-04-09 19:54:00,
2013-04-09 14:59:00,80.8,65.6,29.59,South,178,6.0,6.0,60,0.00,,,0.00,WeatherCatV1.02B3,2013-04-09 19:59:00,
2013-04-09 15:04:00,80.7,66.0,29.59,SW,232,4.0,6.0,61,0.00,,,0.00,WeatherCatV1.02B3,2013-04-09 20:04:00,
2013-04-09 15:09:00,80.6,65.9,29.59,SSW,210,3.0,3.0,61,0.00,,,0.00,WeatherCatV1.02B3,2013-04-09 20:09:00,
2013-04-09 15:14:00,80.5,66.3,29.59,South,173,0.0,5.0,62,0.00,,,0.00,WeatherCatV1.02B3,2013-04-09 20:14:00,
2013-04-09 15:19:00,80.4,66.2,29.59,South,189,5.0,5.0,62,0.00,,,0.00,WeatherCatV1.02B3,2013-04-09 20:19:00,
2013-04-09 15:24:00,80.2,66.0,29.59,South,173,10.0,10.0,62,0.00,,,0.00,WeatherCatV1.02B3,2013-04-09 20:24:00,
2013-04-09 15:29:00,80.0,66.7,29.58,South,181,2.0,9.0,64,0.00,,,0.00,WeatherCatV1.02B3,2013-04-09 20:29:00,
2013-04-09 15:34:00,79.6,66.3,29.58,SSE,161,3.0,9.0,64,0.00,,,0.00,WeatherCatV1.02B3,2013-04-09 20:34:00,
2013-04-09 15:39:00,79.2,66.4,29.58,SE,144,1.0,9.0,65,0.00,,,0.00,WeatherCatV1.02B3,2013-04-09 20:39:00,
2013-04-09 15:44:00,78.9,66.6,29.58,SSE,155,0.0,9.0,66,0.00,,,0.00,WeatherCatV1.02B3,2013-04-09 20:44:00,
2013-04-09 15:49:00,78.8,66.5,29.58,South,169,0.0,13.0,66,0.00,,,0.00,WeatherCatV1.02B3,2013-04-09 20:49:00,
2013-04-09 15:54:00,78.7,66.4,29.58,ESE,121,5.0,12.0,66,0.00,,,0.00,WeatherCatV1.02B3,2013-04-09 20:54:00,
2013-04-09 15:59:00,78.6,66.7,29.58,SSW,209,3.0,6.0,67,0.00,,,0.00,WeatherCatV1.02B3,2013-04-09 20:59:00,
2013-04-09 16:04:00,78.5,67.0,29.58,SE,143,0.0,11.0,68,0.00,,,0.00,WeatherCatV1.02B3,2013-04-09 21:04:00,
2013-04-09 16:09:00,78.4,66.5,29.58,SE,146,0.0,4.0,67,0.00,,,0.00,WeatherCatV1.02B3,2013-04-09 21:09:00,
2013-04-09 16:14:00,78.4,66.1,29.58,South,173,3.0,13.0,66,0.00,,,0.00,WeatherCatV1.02B3,2013-04-09 21:14:00,
2013-04-09 16:19:00,78.3,66.0,29.58,SSE,155,2.0,6.0,66,0.00,,,0.00,WeatherCatV1.02B3,2013-04-09 21:19:00,
2013-04-09 16:24:00,78.3,66.4,29.58,SSE,164,9.0,10.0,67,0.00,,,0.00,WeatherCatV1.02B3,2013-04-09 21:24:00,
2013-04-09 16:29:00,78.3,65.5,29.58,South,173,4.0,6.0,65,0.00,,,0.00,WeatherCatV1.02B3,2013-04-09 21:29:00,
2013-04-09 16:34:00,78.4,65.6,29.58,South,179,9.0,13.0,65,0.00,,,0.00,WeatherCatV1.02B3,2013-04-09 21:34:00,
2013-04-09 16:39:00,78.5,65.7,29.58,South,185,4.0,12.0,65,0.00,,,0.00,WeatherCatV1.02B3,2013-04-09 21:39:00,
2013-04-09 16:44:00,78.6,65.4,29.57,SSE,167,3.0,7.0,64,0.00,,,0.00,WeatherCatV1.02B3,2013-04-09 21:44:00,
2013-04-09 16:49:00,78.7,65.5,29.57,SSE,162,2.0,8.0,64,0.00,,,0.00,WeatherCatV1.02B3,2013-04-09 21:49:00,
2013-04-09 16:54:00,78.8,66.0,29.57,South,178,3.0,10.0,65,0.00,,,0.00,WeatherCatV1.02B3,2013-04-09 21:54:00,
2013-04-09 16:59:00,78.9,66.1,29.56,SE,138,1.0,9.0,65,0.00,,,0.00,WeatherCatV1.02B3,2013-04-09 21:59:00,
2013-04-09 17:04:00,79.2,66.4,29.56,South,173,3.0,11.0,65,0.00,,,0.00,WeatherCatV1.02B3,2013-04-09 22:04:00,
2013-04-09 17:09:00,79.5,66.7,29.56,SW,236,0.0,3.0,65,0.00,,,0.00,WeatherCatV1.02B3,2013-04-09 22:09:00,
2013-04-09 17:14:00,79.8,67.0,29.56,SSE,152,0.0,10.0,65,0.00,,,0.00,WeatherCatV1.02B3,2013-04-09 22:14:00,
2013-04-09 17:19:00,80.1,66.8,29.56,SSE,153,0.0,9.0,64,0.00,,,0.00,WeatherCatV1.02B3,2013-04-09 22:19:00,
2013-04-09 17:24:00,80.2,66.4,29.56,SSW,210,0.0,5.0,63,0.00,,,0.00,WeatherCatV1.02B3,2013-04-09 22:24:00,
2013-04-09 17:29:00,80.2,66.4,29.57,South,182,0.0,6.0,63,0.00,,,0.00,WeatherCatV1.02B3,2013-04-09 22:29:00,
2013-04-09 17:34:00,80.3,66.5,29.57,SSE,153,5.0,9.0,63,0.00,,,0.00,WeatherCatV1.02B3,2013-04-09 22:34:00,
2013-04-09 17:39:00,80.4,67.1,29.57,SSW,211,0.0,6.0,64,0.00,,,0.00,WeatherCatV1.02B3,2013-04-09 22:39:00,
2013-04-09 17:44:00,80.6,66.8,29.57,South,178,6.0,6.0,63,0.00,,,0.00,WeatherCatV1.02B3,2013-04-09 22:44:00,
2013-04-09 17:49:00,80.8,67.0,29.57,SE,146,3.0,7.0,63,0.00,,,0.00,WeatherCatV1.02B3,2013-04-09 22:49:00,
2013-04-09 17:54:00,80.7,66.4,29.57,SE,142,3.0,9.0,62,0.00,,,0.00,WeatherCatV1.02B3,2013-04-09 22:54:00,
2013-04-09 17:59:00,80.5,66.3,29.58,SSE,159,4.0,11.0,62,0.00,,,0.00,WeatherCatV1.02B3,2013-04-09 22:59:00,
2013-04-09 18:04:00,80.4,66.6,29.58,SSE,148,2.0,9.0,63,0.00,,,0.00,WeatherCatV1.02B3,2013-04-09 23:04:00,
2013-04-09 18:09:00,80.3,66.1,29.58,South,173,3.0,4.0,62,0.00,,,0.00,WeatherCatV1.02B3,2013-04-09 23:09:00,
2013-04-09 18:14:00,80.2,66.4,29.58,SSE,158,4.0,6.0,63,0.00,,,0.00,WeatherCatV1.02B3,2013-04-09 23:14:00,
2013-04-09 18:19:00,80.1,66.3,29.58,South,176,0.0,1.0,63,0.00,,,0.00,WeatherCatV1.02B3,2013-04-09 23:19:00,
2013-04-09 18:24:00,80.0,66.2,29.58,SE,141,0.0,7.0,63,0.00,,,0.00,WeatherCatV1.02B3,2013-04-09 23:24:00,
2013-04-09 18:29:00,80.0,66.2,29.58,South,188,0.0,2.0,63,0.00,,,0.00,WeatherCatV1.02B3,2013-04-09 23:29:00,
2013-04-09 18:34:00,79.9,66.2,29.58,SSE,159,0.0,0.0,63,0.00,,,0.00,WeatherCatV1.02B3,2013-04-09 23:34:00,
2013-04-09 18:39:00,79.8,66.1,29.58,SE,132,0.0,0.0,63,0.00,,,0.00,WeatherCatV1.02B3,2013-04-09 23:39:00,
2013-04-09 18:44:00,79.7,66.4,29.58,SE,140,0.0,0.0,64,0.00,,,0.00,WeatherCatV1.02B3,2013-04-09 23:44:00,
2013-04-09 18:49:00,79.6,65.9,29.58,SSE,155,0.0,3.0,63,0.00,,,0.00,WeatherCatV1.02B3,2013-04-09 23:49:00,
2013-04-09 18:54:00,79.5,65.8,29.58,SSE,154,0.0,4.0,63,0.00,,,0.00,WeatherCatV1.02B3,2013-04-09 23:54:00,
2013-04-09 18:59:00,79.4,66.1,29.58,SSE,168,0.0,5.0,64,0.00,,,0.00,WeatherCatV1.02B3,2013-04-09 23:59:00,
2013-04-09 19:04:00,79.3,66.0,29.58,South,175,0.0,5.0,64,0.00,,,0.00,WeatherCatV1.02B3,2013-04-10 00:04:00,
2013-04-09 19:09:00,79.2,65.9,29.58,SE,140,0.0,0.0,64,0.00,,,0.00,WeatherCatV1.02B3,2013-04-10 00:09:00,
2013-04-09 19:14:00,79.2,66.8,29.57,East,85,0.0,0.0,66,0.00,,,0.00,WeatherCatV1.02B3,2013-04-10 00:14:00,
2013-04-09 19:19:00,79.1,66.7,29.57,SE,146,0.0,0.0,66,0.00,,,0.00,WeatherCatV1.02B3,2013-04-10 00:19:00,
2013-04-09 19:24:00,78.9,66.6,29.57,ESE,123,3.0,5.0,66,0.00,,,0.00,WeatherCatV1.02B3,2013-04-10 00:24:00,
2013-04-09 19:29:00,78.5,66.2,29.56,South,175,6.0,7.0,66,0.00,,,0.00,WeatherCatV1.02B3,2013-04-10 00:29:00,
2013-04-09 19:34:00,78.3,66.0,29.56,ESE,117,0.0,8.0,66,0.00,,,0.00,WeatherCatV1.02B3,2013-04-10 00:34:00,
2013-04-09 19:39:00,78.0,65.7,29.56,South,190,7.0,11.0,66,0.00,,,0.00,WeatherCatV1.02B3,2013-04-10 00:39:00,
2013-04-09 19:44:00,77.9,65.6,29.56,South,185,4.0,9.0,66,0.00,,,0.00,WeatherCatV1.02B3,2013-04-10 00:44:00,
2013-04-09 19:49:00,77.8,65.5,29.56,SSE,148,9.0,16.0,66,0.00,,,0.00,WeatherCatV1.02B3,2013-04-10 00:49:00,
2013-04-09 19:54:00,77.7,65.8,29.56,East,100,2.0,12.0,67,0.00,,,0.00,WeatherCatV1.02B3,2013-04-10 00:54:00,
2013-04-09 19:59:00,77.6,65.8,29.55,SSE,166,11.0,15.0,67,0.00,,,0.00,WeatherCatV1.02B3,2013-04-10 00:59:00,
2013-04-09 20:04:00,77.5,66.1,29.55,SSE,161,3.0,14.0,68,0.00,,,0.00,WeatherCatV1.02B3,2013-04-10 01:04:00,
2013-04-09 20:09:00,77.5,66.1,29.55,South,173,2.0,17.0,68,0.00,,,0.00,WeatherCatV1.02B3,2013-04-10 01:09:00,
2013-04-09 20:14:00,77.4,66.4,29.55,South,174,8.0,19.0,69,0.00,,,0.00,WeatherCatV1.02B3,2013-04-10 01:14:00,
2013-04-09 20:19:00,77.3,66.3,29.55,South,175,7.0,16.0,69,0.00,,,0.00,WeatherCatV1.02B3,2013-04-10 01:19:00,
2013-04-09 20:24:00,77.4,66.4,29.55,SSW,194,11.0,18.0,69,0.00,,,0.00,WeatherCatV1.02B3,2013-04-10 01:24:00,
2013-04-09 20:29:00,77.4,66.8,29.55,SSE,163,6.0,14.0,70,0.00,,,0.00,WeatherCatV1.02B3,2013-04-10 01:29:00,
2013-04-09 20:34:00,77.3,66.7,29.55,South,172,3.0,12.0,70,0.00,,,0.00,WeatherCatV1.02B3,2013-04-10 01:34:00,
2013-04-09 20:39:00,77.2,66.6,29.55,South,171,5.0,19.0,70,0.00,,,0.00,WeatherCatV1.02B3,2013-04-10 01:39:00,
2013-04-09 20:44:00,77.0,66.9,29.56,SE,144,4.0,7.0,71,0.00,,,0.00,WeatherCatV1.02B3,2013-04-10 01:44:00,
2013-04-09 20:49:00,76.8,66.7,29.56,South,184,9.0,16.0,71,0.00,,,0.00,WeatherCatV1.02B3,2013-04-10 01:49:00,
2013-04-09 20:54:00,76.6,66.9,29.56,South,170,8.0,13.0,72,0.00,,,0.00,WeatherCatV1.02B3,2013-04-10 01:54:00,
2013-04-09 20:59:00,76.4,67.1,29.57,South,169,4.0,11.0,73,0.00,,,0.00,WeatherCatV1.02B3,2013-04-10 01:59:00,
2013-04-09 21:04:00,76.2,66.9,29.57,SSE,160,4.0,12.0,73,0.00,,,0.00,WeatherCatV1.02B3,2013-04-10 02:04:00,
2013-04-09 21:09:00,76.0,67.1,29.57,SSE,168,7.0,9.0,74,0.00,,,0.00,WeatherCatV1.02B3,2013-04-10 02:09:00,
2013-04-09 21:14:00,75.9,67.0,29.59,SSE,165,7.0,11.0,74,0.00,,,0.00,WeatherCatV1.02B3,2013-04-10 02:14:00,
2013-04-09 21:19:00,75.8,66.9,29.59,South,169,6.0,12.0,74,0.00,,,0.00,WeatherCatV1.02B3,2013-04-10 02:19:00,
2013-04-09 21:24:00,75.8,67.3,29.59,South,180,4.0,10.0,75,0.00,,,0.00,WeatherCatV1.02B3,2013-04-10 02:24:00,
2013-04-09 21:29:00,75.7,67.2,29.60,SSE,154,0.0,13.0,75,0.00,,,0.00,WeatherCatV1.02B3,2013-04-10 02:29:00,
2013-04-09 21:34:00,75.6,67.5,29.60,South,178,3.0,12.0,76,0.00,,,0.00,WeatherCatV1.02B3,2013-04-10 02:34:00,
2013-04-09 21:39:00,75.5,67.4,29.60,SSE,151,3.0,11.0,76,0.00,,,0.00,WeatherCatV1.02B3,2013-04-10 02:39:00,
2013-04-09 21:44:00,75.4,67.3,29.60,SSE,165,12.0,15.0,76,0.00,,,0.00,WeatherCatV1.02B3,2013-04-10 02:44:00,
2013-04-09 21:49:00,75.3,67.6,29.60,SSW,205,5.0,15.0,77,0.00,,,0.00,WeatherCatV1.02B3,2013-04-10 02:49:00,
2013-04-09 21:54:00,75.3,67.6,29.60,South,190,7.0,15.0,77,0.00,,,0.00,WeatherCatV1.02B3,2013-04-10 02:54:00,
2013-04-09 21:59:00,75.3,67.6,29.62,SSE,160,3.0,13.0,77,0.00,,,0.00,WeatherCatV1.02B3,2013-04-10 02:59:00,
2013-04-09 22:04:00,75.2,67.5,29.62,South,172,10.0,12.0,77,0.00,,,0.00,WeatherCatV1.02B3,2013-04-10 03:04:00,
2013-04-09 22:09:00,75.0,67.3,29.62,SE,131,2.0,12.0,77,0.00,,,0.00,WeatherCatV1.02B3,2013-04-10 03:09:00,
2013-04-09 22:14:00,74.9,67.2,29.63,South,171,5.0,14.0,77,0.00,,,0.00,WeatherCatV1.02B3,2013-04-10 03:14:00,
2013-04-09 22:19:00,74.8,67.5,29.63,South,178,4.0,10.0,78,0.00,,,0.00,WeatherCatV1.02B3,2013-04-10 03:19:00,
2013-04-09 22:24:00,74.7,67.4,29.63,SE,136,5.0,11.0,78,0.00,,,0.00,WeatherCatV1.02B3,2013-04-10 03:24:00,
2013-04-09 22:29:00,74.6,67.3,29.64,ESE,110,11.0,11.0,78,0.00,,,0.00,WeatherCatV1.02B3,2013-04-10 03:29:00,
2013-04-09 22:34:00,74.5,67.5,29.64,SSE,164,0.0,7.0,79,0.00,,,0.00,WeatherCatV1.02B3,2013-04-10 03:34:00,
2013-04-09 22:39:00,74.4,67.4,29.64,South,170,3.0,14.0,79,0.00,,,0.00,WeatherCatV1.02B3,2013-04-10 03:39:00,
2013-04-09 22:44:00,74.5,67.5,29.64,SSE,163,2.0,13.0,79,0.00,,,0.00,WeatherCatV1.02B3,2013-04-10 03:44:00,
2013-04-09 22:49:00,74.6,67.6,29.64,SE,134,3.0,6.0,79,0.00,,,0.00,WeatherCatV1.02B3,2013-04-10 03:49:00,
2013-04-09 22:54:00,74.6,67.6,29.64,SSE,164,5.0,11.0,79,0.00,,,0.00,WeatherCatV1.02B3,2013-04-10 03:54:00,
2013-04-09 22:59:00,74.7,67.7,29.64,SSW,196,6.0,10.0,79,0.00,,,0.00,WeatherCatV1.02B3,2013-04-10 03:59:00,
2013-04-09 23:00:00,74.8,67.8,29.64,South,181,3.0,12.0,79,0.00,,,0.00,WeatherCatV1.02B3,2013-04-10 04:00:00,
2013-04-09 23:01:00,74.8,67.8,29.64,SSE,164,9.0,12.0,79,0.00,,,0.00,WeatherCatV1.02B3,2013-04-10 04:01:00,
2013-04-09 23:06:00,74.8,67.8,29.64,South,169,10.0,20.0,79,0.00,,,0.00,WeatherCatV1.02B3,2013-04-10 04:06:00,
2013-04-09 23:11:00,74.6,67.6,29.64,South,177,5.0,14.0,79,0.00,,,0.00,WeatherCatV1.02B3,2013-04-10 04:11:00,
2013-04-09 23:16:00,74.4,67.4,29.63,SE,132,13.0,13.0,79,0.00,,,0.00,WeatherCatV1.02B3,2013-04-10 04:16:00,
2013-04-09 23:21:00,74.1,67.5,29.63,South,183,5.0,20.0,80,0.00,,,0.00,WeatherCatV1.02B3,2013-04-10 04:21:00,
2013-04-09 23:26:00,73.9,67.3,29.63,South,182,3.0,14.0,80,0.00,,,0.00,WeatherCatV1.02B3,2013-04-10 04:26:00,
2013-04-09 23:31:00,73.7,67.5,29.63,SSE,147,9.0,11.0,81,0.00,,,0.00,WeatherCatV1.02B3,2013-04-10 04:31:00,
2013-04-09 23:36:00,73.6,67.4,29.63,South,181,3.0,10.0,81,0.00,,,0.00,WeatherCatV1.02B3,2013-04-10 04:36:00,
2013-04-09 23:41:00,73.4,67.2,29.63,South,180,7.0,18.0,81,0.00,,,0.00,WeatherCatV1.02B3,2013-04-10 04:41:00,
2013-04-09 23:46:00,73.3,67.5,29.64,South,178,3.0,6.0,82,0.00,,,0.00,WeatherCatV1.02B3,2013-04-10 04:46:00,
2013-04-09 23:51:00,73.3,67.5,29.64,SSW,194,9.0,9.0,82,0.00,,,0.00,WeatherCatV1.02B3,2013-04-10 04:51:00,
2013-04-09 23:56:00,73.3,67.5,29.64,SE,127,3.0,10.0,82,0.00,,,0.00,WeatherCatV1.02B3,2013-04-10 04:56:00,